Weather History for Topeka Forbes, KS

Change the Weather History Date:

Sunday, May 5, 2013

  Actual Average Record
Temperature  
Mean Temperature 50 °F -  
Max Temperature 55 °F 74 °F 95 °F (1952)
Min Temperature 44 °F 51 °F 36 °F (1957)
Degree Days  
Heating Degree Days 16    
Moisture  
Dew Point 45 °F    
Average Humidity 87    
Maximum Humidity 100    
Minimum Humidity 74    
Precipitation  
Precipitation 0.02 in - - ()
Sea Level Pressure  
Sea Level Pressure 30.10 in    
Wind  
Wind Speed 11 mph (NNW)    
Max Wind Speed 14 mph    
Max Gust Speed 18 mph    
Visibility 7 miles    
Events Rain    
Averages and records for this station are not official NWS values.
T = Trace of Precipitation, MM = Missing Value Source: NWS Daily Summary

Daily Weather History Graph

Daily Weather History Graph

Search for Another Location

Airport:

Trip Planner

Search our weather history database for the weather conditions in past years. The results will help you decide how hot, cold, wet, or windy it might be!

Date:

Astronomy

May. 05, 2013 Rise Set
Actual Time 6:19 AM CDT 8:19 PM CDT
Civil Twilight 5:50 AM CDT 8:48 PM CDT
Nautical Twilight 5:15 AM CDT 9:24 PM CDT
Astronomical Twilight 4:36 AM CDT 10:02 PM CDT
Moon 3:48 AM CDT (5/5) 4:21 PM CDT (5/5)
Length of Visible Light 14h 58m
Length of Day
13h 59m
Waning Crescent, 18% of the Moon is Illuminated
May 5
Waning Crescent
May 9
New
May 17
First Quarter
May 24
Full
May 31
Last Quarter

Hourly Weather History & Observations

Time (CDT) Temp. Windchill Dew Point Humidity Pressure Visibility Wind Dir Wind Speed Gust Speed Precip Events Conditions
12:13 AM 44.6 °F 38.1 °F 42.8 °F 93% 30.06 in 5.0 mi North 13.8 mph - N/A   Overcast
12:53 AM 45.0 °F 40.6 °F 43.0 °F 93% 30.08 in 4.0 mi North 8.1 mph 18.4 mph N/A   Overcast
1:53 AM 45.0 °F 39.3 °F 43.0 °F 93% 30.07 in 4.0 mi North 11.5 mph - N/A   Overcast
2:53 AM 45.0 °F 39.3 °F 44.1 °F 97% 30.07 in 3.0 mi North 11.5 mph - N/A   Overcast
3:16 AM 44.6 °F 40.2 °F 44.6 °F 100% 30.06 in 2.5 mi North 8.1 mph - N/A   Overcast
3:53 AM 45.0 °F 39.3 °F 44.1 °F 97% 30.07 in 3.0 mi NNW 11.5 mph - 0.00 in Rain Light Rain
4:53 AM 45.0 °F 39.3 °F 43.0 °F 93% 30.09 in 4.0 mi NNW 11.5 mph - 0.01 in   Overcast
5:53 AM 45.0 °F 41.2 °F 43.0 °F 93% 30.09 in 6.0 mi NNW 6.9 mph - N/A   Overcast
6:16 AM 44.6 °F 40.7 °F 42.8 °F 93% 30.09 in 7.0 mi North 6.9 mph - N/A   Overcast
6:53 AM 45.0 °F 39.3 °F 43.0 °F 93% 30.11 in 7.0 mi NNW 11.5 mph - N/A   Overcast
7:53 AM 45.0 °F 40.1 °F 43.0 °F 93% 30.12 in 4.0 mi NNW 9.2 mph - 0.00 in Rain Light Rain
8:53 AM 45.0 °F 38.9 °F 44.1 °F 97% 30.14 in 6.0 mi NNW 12.7 mph - 0.01 in   Overcast
9:53 AM 46.0 °F 40.6 °F 44.1 °F 93% 30.14 in 7.0 mi NNW 11.5 mph - N/A   Overcast
10:53 AM 46.9 °F - 44.1 °F 90% 30.14 in 8.0 mi NW 12.7 mph - N/A   Overcast
11:53 AM 48.0 °F - 44.1 °F 86% 30.16 in 9.0 mi NNW 12.7 mph - N/A   Overcast
1:53 PM 51.1 °F - 46.0 °F 83% 30.14 in 8.0 mi NW 10.4 mph - N/A   Overcast
2:02 PM 51.8 °F - 46.4 °F 82% 30.12 in 8.0 mi NNW 11.5 mph - N/A   Overcast
2:53 PM 51.1 °F - 46.0 °F 83% 30.13 in 9.0 mi NW 12.7 mph - N/A   Overcast
3:53 PM 53.1 °F - 46.0 °F 77% 30.11 in 10.0 mi NNW 11.5 mph - N/A   Overcast
4:53 PM 53.1 °F - 46.0 °F 77% 30.10 in 10.0 mi NNW 11.5 mph 18.4 mph N/A   Overcast
5:48 PM 53.6 °F - 46.4 °F 77% 30.08 in 10.0 mi NNW 10.4 mph - N/A   Overcast
5:53 PM 55.0 °F - 46.9 °F 74% 30.09 in 10.0 mi NNW 10.4 mph - N/A   Overcast
6:53 PM 54.0 °F - 46.9 °F 77% 30.09 in 10.0 mi North 8.1 mph - N/A   Overcast
7:53 PM 53.1 °F - 46.9 °F 80% 30.10 in 10.0 mi NNW 8.1 mph - N/A   Overcast
8:53 PM 52.0 °F - 46.9 °F 83% 30.11 in 10.0 mi North 9.2 mph - N/A   Overcast
9:53 PM 52.0 °F - 46.9 °F 83% 30.11 in 10.0 mi NNW 8.1 mph - N/A   Overcast
10:53 PM 52.0 °F - 46.9 °F 83% 30.11 in 10.0 mi North 8.1 mph - N/A   Overcast
11:53 PM 52.0 °F - 48.0 °F 86% 30.11 in 10.0 mi North 3.5 mph - N/A   Overcast